sat.trackr.live / text

‹ back to catalog

ONEWEB-0164

NORAD 48063 · 2021-025X

PAYLOAD ACTIVE UNKNOWN

§ Identity

Operator
Country
UK
Launch date
2021-03-25
Launch site
VOSTO
Launch vehicle
Mass (kg)
RCS (m²)

Purposes: comms

External: N2YO · Heavens-Above · Gunter

§ Orbital elements

Epoch: 2026-09-19T20:39:57.862368Z

Period
109.63 min
Inclination
87.8918°
Eccentricity
0.0001949
Mean motion
13.13469661 rev/d
Perigee alt
1,208.3 km
Apogee alt
1,211.2 km
Semi-major
7,587.9 km
B*
4.9225e-4
RAAN
301.3894°
Arg perigee
93.0785°
Mean anomaly
267.0567°
Rev number
26,601

§ Raw data

ONEWEB-01641 48063U 21025X   26262.86108637  .00000193  00000+0  49225-3 0  99952 48063  87.8918 301.3894 0001949  93.0785 267.0567 13.13469661266015

JSON: /api/v1/satellites/48063 · /tle

For live sub-satellite position, see the globe view (requires WebGL).

§ Visibility from observer

Set your observer location to see the next 7 days of passes ≥ 10°. The values pass through the URL so the page stays shareable.

No JS? Fill the form by hand. The geolocation button needs JavaScript.